Location: Lavington
(51.2833°N, 1.9833°W)
Time: 09:29:44
(UTC+00:00)

Daily predictions for brighter satellites

Satellite Brightness Start Highest point End
(mag) Time Altitude Azimuth Time Altitude Azimuth Time Altitude Azimuth
STARLINK-1204 3.9 20:54:59 10° W 20:59:08 74° N 21:03:17 10° ENE
STARLINK-1128 3.7 20:55:37 10° WNW 20:59:45 68° SSW 21:03:53 10° ESE
STARLINK-1241 3.6 20:57:20 10° WSW 21:01:26 66° SSE 21:05:33 10° ENE
deb Kosmos-1763 4.0 20:59:22 10° NNW 21:02:59 82° ENE 21:06:35 10° SSE
Cosmos 1300 Rocket 4.2 20:58:41 10° NNW 21:03:04 59° W 21:07:26 10° S
STARLINK-1238 3.9 21:00:00 10° W 21:04:08 72° N 21:08:17 10° ENE
STARLINK-1113 3.7 21:00:37 10° WNW 21:04:44 65° SSW 21:08:50 10° ESE
Aureole 2 Rocket 2.6 21:02:37 10° S 21:05:31 38° ESE 21:08:18 10° NE
STARLINK-1239 3.6 21:02:16 10° WSW 21:06:23 69° SSE 21:10:31 10° ENE
STARLINK-1201 3.9 21:04:58 10° W 21:09:07 71° N 21:13:16 10° ENE
STARLINK-1119 3.8 21:05:38 10° WNW 21:09:44 62° SSW 21:13:49 10° SE
Cosmos 1437 Rocket 2.6 21:06:54 10° S 21:10:40 75° E 21:14:31 10° NNE
STARLINK-1240 3.6 21:07:13 10° WSW 21:11:21 73° SSE 21:15:29 10° ENE
Cosmos 1378 4.1 21:10:05 10° SSE 21:13:21 30° E 21:16:38 10° NNE
STARLINK-1206 4.0 21:10:00 10° W 21:14:08 70° N 21:18:17 10° E
ISS -1.3 21:12:27 10° WSW 21:14:09 13° SW 21:15:51 10° S
STARLINK-1114 3.8 21:10:35 10° WNW 21:14:41 58° SSW 21:18:45 10° SE
Meteor 1-15 Rocket 4.4 21:09:17 10° NNW 21:15:16 87° ENE 21:21:11 10° SSE
STARLINK-1203 3.6 21:12:01 10° WSW 21:16:13 76° SSE 21:20:26 10° ENE
STARLINK-1216 3.6 21:12:11 10° WSW 21:16:19 76° SSE 21:20:28 10° ENE
Lacrosse 5 3.6 21:13:06 10° WNW 21:17:03 23° SW 21:20:59 10° S
Cosmos 304 Rocket 3.8 21:12:29 10° S 21:17:11 61° ESE 21:21:56 10° NNE
USA 215 4.0 21:11:25 10° E 21:17:48 56° N 21:24:09 10° WNW
NOSS 8 (E) 4.0 21:15:09 10° SW 21:18:17 71° SE 21:21:21 10° NE
STARLINK-1205 4.0 21:14:58 10° W 21:19:06 69° N 21:23:15 10° E
STARLINK-1130 (DARKSAT) 3.9 21:15:35 10° WNW 21:19:39 55° SSW 21:23:37 11° SE
STARLINK-1237 3.6 21:17:09 10° WSW 21:21:18 79° SSE 21:25:27 10° ENE
CENTAUR R/B 3.5 21:13:54 10° NW 21:21:32 62° NE 21:30:07 10° ESE
NOSS 2-2 (D) 3.9 21:18:23 10° S 21:21:37 32° ESE 21:25:12 10° ENE
CZ-2C R/B 4.1 21:17:26 10° N 21:22:43 44° WNW 21:28:00 10° SW
STARLINK-1218 4.0 21:19:58 10° W 21:24:06 69° N 21:28:15 10° E
STARLINK-1084 4.0 21:20:34 10° WNW 21:24:37 52° SSW 21:28:24 11° SE
ATLAS 3B R/B 3.8 21:18:24 10° NW 21:24:41 40° NNE 21:31:08 10° E
Cosmos 1674 Rocket 3.6 21:21:29 10° S 21:25:52 89° WNW 21:30:20 10° N
STARLINK-1202 3.6 21:22:07 10° WSW 21:26:16 82° SSE 21:30:26 10° ENE
SL-27 R/B 3.6 21:23:03 10° N 21:26:23 34° ENE 21:29:28 11° SE
NOSS 3-2 (C) 4.3 21:19:41 10° NW 21:26:54 68° NE 21:35:09 10° ESE
Cosmos 1378 Rocket 3.5 21:24:22 10° S 21:28:45 76° E 21:33:09 10° NNE
STARLINK-1254 4.0 21:24:57 10° W 21:29:05 68° N 21:33:14 10° E
Cosmos 1766 3.6 21:25:17 10° N 21:29:12 55° ENE 21:32:47 12° SSE
STARLINK-1098 4.0 21:25:34 10° WNW 21:29:35 49° SSW 21:33:11 12° SE
STARLINK-1231 4.0 21:29:56 10° W 21:34:05 68° N 21:38:13 10° E
STARLINK-1123 4.1 21:30:32 10° WNW 21:34:31 46° SSW 21:37:56 13° SE
STARLINK-1246 3.6 21:32:05 10° WSW 21:36:15 88° SSE 21:40:25 10° ENE
Cosmos 1900 4.4 21:31:26 10° NW 21:36:29 80° SW 21:41:01 13° SSE
IGS 5A 4.1 21:32:39 10° S 21:36:43 51° W 21:40:48 10° NNW
Cosmos 2297 3.7 21:32:23 10° SSW 21:38:03 78° ESE 21:43:49 10° NNE
Cosmos 1943 Rocket 2.7 21:32:55 10° S 21:38:03 39° ESE 21:43:14 10° NE
NOSS 2-2 (E) 3.2 21:35:15 10° SSW 21:38:47 57° SE 21:42:54 10° NE
STARLINK-1232 4.0 21:34:56 10° W 21:39:04 68° N 21:43:13 10° E
STARLINK-1097 4.2 21:35:34 10° WNW 21:39:31 43° SSW 21:42:45 14° SE
STARLINK-1224 3.6 21:37:04 10° WSW 21:41:13 89° NNW 21:45:23 10° ENE
Cosmos 2082 Rocket 3.8 21:36:36 10° NW 21:41:26 29° WSW 21:46:13 10° SSW
Cosmos 332 Rocket 4.4 21:36:49 10° SW 21:41:40 60° WNW 21:46:32 10° NNE
SeaSat 1 4.3 21:40:29 10° ENE 21:42:45 13° E 21:44:34 11° ESE
STARLINK-1208 4.0 21:39:54 10° W 21:44:02 68° N 21:48:11 10° E
SAR-Lupe-2 4.0 21:40:32 10° N 21:44:06 63° WNW 21:47:40 10° SSW
STARLINK-1099 4.3 21:40:33 10° WNW 21:44:27 41° SSW 21:47:31 15° SSE
Cosmos 1461 3.1 21:41:45 10° SW 21:45:56 79° NW 21:50:24 10° NE
STARLINK-1225 3.7 21:42:03 10° WSW 21:46:12 86° NNW 21:50:23 10° ENE
STARLINK-1212 3.0 21:44:15 10° WNW 21:47:22 75° NNE 21:50:29 10° E
STARLINK-1105 3.0 21:44:43 10° WNW 21:47:50 75° NNE 21:50:56 10° E
Cosmos 1975 Rocket 3.5 21:44:36 13° SSE 21:48:19 45° E 21:52:32 10° NNE
STARLINK-1247 3.0 21:45:36 10° WNW 21:48:44 75° NNE 21:51:51 10° E
STARLINK-1271 4.0 21:44:56 10° W 21:49:05 68° N 21:53:13 10° E
STARLINK-1227 3.0 21:46:06 10° WNW 21:49:13 76° NNE 21:52:19 10° E
STARLINK-1104 4.4 21:45:32 10° WNW 21:49:24 38° SW 21:52:18 16° SSE
Meteor 1-23 Rocket 4.4 21:43:44 10° SSW 21:49:25 79° WNW 21:55:05 10° N
BREEZE-M DEB (TANK) 4.1 21:32:52 10° SW 21:49:54 56° SSE 21:54:15 10° E
STARLINK-1226 3.0 21:46:57 10° WNW 21:50:04 76° NNE 21:53:12 10° E
BREEZE-M DEB (TANK) 2.9 21:46:17 10° W 21:50:53 71° S 21:54:24 10° E
STARLINK-1215 3.0 21:47:51 10° WNW 21:50:59 77° NNE 21:54:06 10° E
STARLINK-1230 3.7 21:47:02 10° WSW 21:51:11 84° NNW 21:55:21 10° ENE
STARLINK-1217 2.9 21:49:40 10° WNW 21:52:47 78° NNE 21:55:55 10° E
STARLINK-1229 2.9 21:50:35 10° WNW 21:53:42 78° NNE 21:56:50 10° E
STARLINK-1154 4.0 21:49:55 10° W 21:54:04 68° N 21:58:12 10° E
Cosmos 2369 Rocket 2.8 21:49:04 10° S 21:54:14 39° ESE 21:59:27 10° NE
STARLINK-1144 4.4 21:50:33 10° WNW 21:54:21 36° SW 21:57:05 17° SSE
STARLINK-1270 2.9 21:51:28 10° WNW 21:54:37 79° NNE 21:57:44 10° ESE
STARLINK-1243 3.7 21:52:01 10° WSW 21:56:11 81° NNW 22:00:21 10° ENE
STARLINK-1189 2.9 21:53:15 10° WNW 21:56:24 80° NNE 21:59:29 10° ESE
STARLINK-1188 2.9 21:54:11 10° WNW 21:57:18 81° NNE 22:00:22 11° ESE
STARLINK-1187 2.8 21:55:17 10° WNW 21:58:23 85° N 22:01:14 12° ESE
SPOT 5 3.3 21:53:31 12° S 21:58:28 69° WSW 22:03:51 10° NNW
STARLINK-1197 3.9 21:54:53 10° W 21:59:02 69° N 22:03:10 10° E
STARLINK-1191 2.9 21:56:37 10° WNW 21:59:45 82° NNE 22:02:39 11° ESE
ATLAS CENTAUR R/B 3.4 21:59:35 12° ESE 21:59:57 12° ESE 22:01:35 10° E
STARLINK-1221 2.9 21:57:35 10° WNW 22:00:41 83° NNE 22:03:35 12° ESE
STARLINK-1236 3.7 21:56:59 10° W 22:01:09 79° NNW 22:05:19 10° ENE
STARLINK-1222 2.8 21:58:25 10° WNW 22:01:33 83° NNE 22:04:23 12° ESE
STARLINK-1214 2.8 21:59:19 10° WNW 22:02:26 84° NNE 22:05:16 12° ESE
NOSS 2-2 (C) 3.1 21:59:48 10° SW 22:03:22 76° SE 22:07:31 10° NE
STARLINK-1198 3.9 21:59:52 10° W 22:04:01 69° N 22:08:09 10° E
EXPRESS MD2 3.8 22:00:33 10° WSW 22:04:06 59° SSE 22:11:12 10° E
Meteor 1-22 Rocket 4.4 21:58:11 10° NNW 22:04:09 81° W 22:09:05 14° S
ERS-1 Rocket 3.6 21:59:40 10° S 22:04:29 53° W 22:09:26 10° NNW
Cosmos 1025 Rocket 4.4 22:02:58 16° SE 22:05:20 25° E 22:08:51 10° NNE
Okean 2 3.4 22:02:00 13° S 22:05:37 73° E 22:09:47 10° NNE
Cosmos 2026 Rocket 4.1 22:00:23 12° S 22:06:05 63° E 22:12:23 10° NNE
BREEZE M DEB (TANK) 2.4 22:02:37 10° WSW 22:06:34 43° S 22:08:32 12° E
Cosmos 1553 Rocket 4.4 22:00:42 10° N 22:06:53 54° ENE 22:11:43 16° SSE
ATLAS 2AS CENTAUR R/B 3.7 22:00:30 10° S 22:07:25 35° ESE 22:14:24 10° NE
Cosmos 1953 3.9 22:04:48 10° NNE 22:08:07 24° ENE 22:10:41 14° ESE
STARLINK-1228 3.1 22:04:45 10° WNW 22:08:16 81° SSW 22:11:08 15° ESE
NOSS 3-2 (A) 4.2 22:00:57 10° NW 22:08:18 67° SW 22:15:11 16° SSE
STARLINK-1199 3.9 22:04:52 10° W 22:09:02 70° N 22:13:10 10° E
Cosmos 1805 4.0 22:05:14 10° NNW 22:09:03 48° W 22:12:24 13° SSW
Cosmos 1470 3.2 22:05:37 10° N 22:09:24 48° ENE 22:11:51 19° SE
Okean 1 Rocket 4.5 22:06:30 10° NNW 22:10:32 34° W 22:14:33 10° SSW
STARLINK-1235 2.9 22:07:29 10° WNW 22:10:44 81° SSW 22:13:12 16° ESE
STARLINK-1269 3.8 22:06:59 10° W 22:11:08 76° N 22:15:18 10° ENE
Resurs 01 Rocket 4.3 22:11:07 10° WSW 22:12:44 12° W 22:14:21 10° WNW
Cosmos 968 Rocket 3.6 22:08:32 10° NNW 22:13:43 72° ENE 22:17:31 18° SE
STARLINK-1210 3.9 22:09:51 10° WNW 22:14:00 71° N 22:18:09 10° E
STARLINK-1200 3.8 22:11:57 10° W 22:16:06 74° N 22:20:16 10° ENE
Cosmos 1455 Rocket 3.0 22:11:57 10° N 22:16:20 90° ENE 22:19:25 19° S
STARLINK-1219 3.8 22:14:49 10° WNW 22:18:59 72° N 22:23:07 10° E
USA 238 DEB 4.1 22:13:08 10° NW 22:20:10 58° SW 22:25:51 17° SSE
USA 238 4.1 22:13:14 10° NW 22:20:16 58° SW 22:25:58 17° SSE
STARLINK-1192 3.9 22:16:58 10° W 22:21:07 73° N 22:25:16 10° ENE
ATLAS 5 CENTAUR R/B 3.1 22:21:46 19° SE 22:21:46 19° SE 22:23:32 10° E
Cosmos 1758 3.6 22:18:53 10° N 22:22:55 59° ENE 22:25:25 22° SSE
Abrixas rocket 4.4 22:22:35 10° SW 22:23:18 11° SW 22:23:18 11° SW
STARLINK-1211 3.8 22:19:50 10° WNW 22:23:59 73° N 22:28:08 10° E
SL-4 R/B 3.0 22:21:07 10° SSW 22:25:24 33° SE 22:29:46 10° E
STARLINK-1244 3.9 22:21:56 10° W 22:26:05 72° N 22:30:14 10° ENE
Terra 2.4 22:23:15 15° S 22:27:05 50° W 22:31:45 10° NNW
Cosmos 1842 3.2 22:24:07 16° S 22:27:08 86° W 22:31:03 10° N
ERBS 4.3 22:24:33 10° WNW 22:27:33 30° N 22:30:34 10° ENE
STARLINK-1234 3.0 22:25:15 10° WNW 22:28:30 64° SSW 22:30:16 24° SE
Meteor 2-13 Rocket 4.5 22:23:31 14° S 22:28:52 79° E 22:35:04 10° NNE
STARLINK-1245 3.8 22:24:48 10° WNW 22:28:58 75° N 22:33:06 10° E
STARLINK-1138 3.9 22:26:56 10° W 22:31:05 70° N 22:35:14 10° ENE
Cosmos 1503 Rocket 4.1 22:28:32 10° NNW 22:33:52 77° ENE 22:37:35 20° SSE
STARLINK-1233 3.8 22:29:46 10° WNW 22:33:55 76° N 22:38:04 10° E
STARLINK-1209 3.1 22:31:26 10° WNW 22:34:40 57° SSW 22:36:13 27° SE
STARLINK-1143 3.9 22:31:54 10° W 22:36:03 70° N 22:40:12 10° E
STARLINK-1204 3.7 22:34:45 10° WNW 22:38:55 78° NNE 22:43:04 10° E
SJ 16-02 4.3 22:40:40 10° NE 22:41:04 10° NE 22:41:27 10° NE
STARLINK-1241 3.9 22:36:56 10° W 22:41:05 69° N 22:45:13 10° E
STARLINK-1238 3.7 22:39:46 10° WNW 22:43:55 80° NNE 22:48:05 10° E
Cosmos 2263 4.2 22:39:19 15° SSW 22:43:59 64° ESE 22:49:34 10° NE
STARLINK-1239 3.9 22:41:55 10° W 22:46:04 68° N 22:50:12 10° E
Cosmos 1536 Rocket 3.8 22:45:44 24° SSE 22:48:06 55° E 22:52:23 10° NNE
STARLINK-1201 3.6 22:44:44 10° WNW 22:48:54 82° NNE 22:53:03 10° ESE
Cosmos 1674 4.4 22:48:20 17° ESE 22:49:39 20° E 22:52:26 10° NE
STARLINK-1240 4.0 22:46:53 10° W 22:51:02 68° N 22:55:10 10° E
Cosmos 1271 Rocket 2.7 22:49:29 25° S 22:51:42 80° E 22:55:40 10° NNE
Cosmos 1242 Rocket 2.7 22:49:25 20° SSW 22:51:48 71° WNW 22:55:30 10° N
Cosmos 1544 Rocket 4.0 22:48:50 10° NNW 22:53:04 54° W 22:55:47 21° SSW
Cosmos 1354 Rocket 4.0 22:47:52 10° NNW 22:53:12 86° WSW 22:56:35 23° SSE
STARLINK-1206 3.6 22:49:44 10° WNW 22:53:54 85° NNE 22:58:03 10° ESE
STARLINK-60 3.2 22:52:20 22° SSW 22:54:00 44° SSE 22:57:03 10° ENE
Meteor 1-21 4.3 22:50:09 15° SSW 22:54:54 78° WNW 23:00:32 10° N
STARLINK-1216 4.0 22:51:52 10° W 22:56:01 68° N 23:00:09 10° E
STARLINK-1203 4.0 22:51:56 10° W 22:56:09 68° N 23:00:21 10° E
COSMOS 2455 3.4 22:52:50 22° SSE 22:56:10 39° ESE 23:01:43 10° NE
Spot 4 3.8 22:53:29 24° SSE 22:56:29 88° ENE 23:01:22 10° NNW
Cosmos 1833 4.3 22:52:01 10° NW 22:57:38 67° WSW 23:01:10 23° SSE
STARLINK-1205 3.6 22:54:42 10° WNW 22:58:53 87° NNE 23:03:02 10° ESE
Cosmos 2297 Rocket 4.0 22:55:18 10° NNW 23:00:04 27° NE 23:04:50 10° E
USA 215 3.3 22:54:00 10° ESE 23:00:35 87° NNE 23:07:10 10° WNW
STARLINK-1237 4.0 22:56:52 10° W 23:01:01 68° N 23:05:09 10° E
SL-27 R/B 4.3 22:58:29 10° NW 23:01:20 22° WSW 23:03:01 16° SW
Cosmos 1707 2.7 22:59:44 27° S 23:01:47 84° ESE 23:05:42 10° NNE
Lacrosse 4 Rocket 4.3 23:00:53 10° N 23:03:23 15° NNE 23:05:51 10° ENE
STARLINK-1218 3.5 22:59:42 10° WNW 23:03:52 90° ESE 23:07:55 11° ESE
Helios 1A 4.2 23:01:35 17° ESE 23:04:13 33° ENE 23:07:59 10° N
Cosmos 1726 2.1 23:01:56 10° N 23:05:41 80° E 23:07:20 32° SSE
STARLINK-1202 4.0 23:01:52 10° W 23:06:01 68° N 23:10:09 10° E
Cosmos 1174 4.1 23:06:37 31° SE 23:07:08 33° ESE 23:10:33 10° NE
Timation 2 Rocket 4.4 23:01:31 10° NNW 23:07:50 59° NE 23:12:55 15° SE
STARLINK-1254 3.5 23:04:40 10° WNW 23:08:50 87° SSW 23:12:41 12° ESE
COSMOS 2487 2.3 23:05:42 10° NNW 23:09:12 89° SW 23:10:32 35° SSE
ALOS 2 2.8 23:07:47 25° SE 23:10:14 63° ENE 23:14:36 10° N
CENTAUR R/B 3.5 23:04:43 10° NW 23:12:27 53° WSW 23:18:18 21° S
STARLINK-1231 3.5 23:09:38 10° WNW 23:13:48 84° SSW 23:17:27 13° ESE
Meteor 1-16 Rocket 4.1 23:09:00 10° NNW 23:14:34 86° ENE 23:17:49 25° SSE
Cosmos 1867 3.8 23:10:27 10° NW 23:15:47 54° WSW 23:18:45 25° S
ATLAS 3B R/B 2.7 23:09:12 10° NW 23:15:59 81° SW 23:21:09 19° SE
STARLINK-1246 3.9 23:11:51 10° W 23:16:00 68° N 23:20:08 10° E
EO 1 Del DPAF 3.3 23:13:36 10° N 23:17:24 71° WNW 23:19:29 25° SSW
STARLINK-1232 3.5 23:14:38 10° WNW 23:18:48 81° SSW 23:22:15 15° ESE
Cosmos 1606 Rocket 4.0 23:15:07 10° N 23:19:22 53° ENE 23:21:36 26° SE
Cosmos 1992 Rocket 4.0 23:16:14 18° SSW 23:20:10 85° WNW 23:25:26 10° NNE
STARLINK-1224 3.9 23:16:50 10° W 23:20:58 69° N 23:25:07 10° E
SeaSat 1 2.4 23:16:06 10° NNE 23:21:03 73° ESE 23:24:20 21° SSW
Cosmos 1943 Rocket 3.2 23:16:28 10° WSW 23:21:46 44° NW 23:27:10 10° NNE
STARLINK-1212 3.7 23:20:12 10° W 23:22:54 33° SW 23:22:54 33° SW
STARLINK-1105 3.7 23:20:41 10° W 23:23:20 33° SW 23:23:20 33° SW
STARLINK-1208 3.5 23:19:36 10° WNW 23:23:45 78° SSW 23:27:00 16° ESE
STARLINK-29 3.3 23:24:02 40° SE 23:24:02 40° SE 23:26:57 10° E
NOSS 5 (C) 4.3 23:21:02 10° NW 23:24:09 73° SW 23:25:32 34° SSE
STARLINK-1247 3.7 23:21:33 10° W 23:24:14 33° SW 23:24:14 33° SW
STARLINK-1227 3.7 23:22:03 10° W 23:24:39 32° SW 23:24:39 32° SW
STARLINK-1226 3.8 23:22:54 10° W 23:25:31 32° SW 23:25:31 32° SW
STARLINK-1225 3.9 23:21:50 10° W 23:25:59 70° N 23:30:08 10° E
ATLAS CENTAUR R/B 2.2 23:24:36 10° NW 23:26:25 34° NNE 23:29:11 10° E
STARLINK-1215 3.8 23:23:48 10° W 23:26:23 31° SW 23:26:23 31° SW
STARLINK-1217 3.9 23:25:38 10° W 23:28:07 30° SW 23:28:07 30° SW
STARLINK-1271 3.5 23:24:36 10° WNW 23:28:46 74° SSW 23:31:49 18° ESE
STARLINK-1229 3.9 23:26:33 10° W 23:29:01 30° SW 23:29:01 30° SW
NOSS 3-4 (A) 3.4 23:23:53 12° SW 23:29:23 77° SE 23:35:50 10° NE
NOSS 3-4 (C) 3.4 23:24:02 13° SW 23:29:29 77° SE 23:35:56 10° NE
STARLINK-1270 3.9 23:27:26 10° W 23:29:53 29° SW 23:29:53 29° SW
RESURS DK-1 3.3 23:29:48 27° SE 23:30:53 31° ESE 23:34:34 10° NE
STARLINK-1230 3.9 23:26:49 10° WNW 23:30:57 71° N 23:35:06 10° E
Meteor 2-10 4.4 23:27:01 10° NNW 23:31:54 51° W 23:34:44 24° SSW
STARLINK-1189 4.0 23:29:15 10° W 23:31:36 28° SW 23:31:36 28° SW
STARLINK-1188 4.0 23:30:10 10° W 23:32:29 28° SW 23:32:29 28° SW
Cosmos 2315 Rocket 4.0 23:26:49 10° N 23:33:04 83° E 23:36:58 24° SSE
STARLINK-1154 3.5 23:29:35 10° WNW 23:33:44 71° SSW 23:36:35 19° ESE
STARLINK-1187 4.3 23:31:20 10° W 23:33:23 24° SW 23:33:23 24° SW
STARLINK-1191 4.2 23:32:38 10° W 23:34:47 26° SW 23:34:47 26° SW
STARLINK-1243 3.8 23:31:49 10° WNW 23:35:58 72° N 23:40:07 10° E
STARLINK-1221 4.2 23:33:35 10° W 23:35:42 25° SW 23:35:42 25° SW
Cosmos 1340 Rocket 3.3 23:32:22 10° NNW 23:36:19 51° W 23:38:06 29° SSW
STARLINK-1222 4.2 23:34:27 10° W 23:36:31 25° WSW 23:36:31 25° WSW
Cosmos 1626 3.7 23:36:00 20° ESE 23:37:14 24° E 23:40:17 10° NE
Cosmos 2227 Rocket 3.5 23:32:00 10° NNW 23:37:18 37° NE 23:42:33 10° ESE
STARLINK-1214 4.3 23:35:21 10° W 23:37:23 24° WSW 23:37:23 24° WSW
Cosmos 2369 Rocket 3.2 23:32:47 10° SW 23:38:13 46° NW 23:43:39 10° NNE
ATLAS CENTAUR R/B 1.3 23:35:42 24° SSW 23:38:15 75° SE 23:42:20 10° NE
STARLINK-1197 3.5 23:34:33 10° WNW 23:38:40 68° SSW 23:41:21 21° SE
STARLINK-1236 3.8 23:36:47 10° WNW 23:40:56 73° N 23:45:05 10° E
Cosmos 1908 3.1 23:37:09 10° N 23:40:59 88° WSW 23:42:29 36° S
Cosmos 1025 Rocket 4.1 23:39:50 17° SW 23:42:45 39° WNW 23:46:50 10° N
Thor Agena Rocket 4.3 23:38:23 10° N 23:43:31 51° WNW 23:47:47 15° SW
STARLINK-1198 3.5 23:39:31 10° WNW 23:43:38 64° SSW 23:46:07 23° SE
Aureole 3 3.1 23:40:33 10° NNW 23:43:45 51° W 23:44:31 39° SW
Cosmos 1953 3.4 23:40:57 10° NNW 23:44:36 35° W 23:46:22 23° SW
STARLINK-1199 3.6 23:44:32 10° WNW 23:48:38 61° SSW 23:50:55 24° SE
SL-4 R/B 2.3 23:50:08 24° W 23:50:08 24° W 23:51:43 10° NW
Landsat 4 4.3 23:46:15 10° NNE 23:49:49 42° E 23:51:00 31° SE
Nimbus 7 Rocket 4.5 23:43:49 10° NNE 23:49:56 85° WNW 23:54:04 22° SSW
STARLINK-1269 3.8 23:46:46 10° WNW 23:50:56 76° N 23:55:05 10° E
Cosmos 1656 Rocket 4.1 23:46:09 12° SW 23:51:15 63° NW 23:56:47 10° NNE
STARLINK-1210 3.6 23:49:31 10° WNW 23:53:35 58° SSW 23:55:41 26° SE
KORONAS-FOTON 3.7 23:52:25 35° S 23:53:55 88° ESE 23:57:49 10° N
